Location: Gälforsberget
(66.6500°N, 22.4167°E)
Time: 21:23:19
(UTC+00:00)

ARIANE 6 FM1 Upper Stage - Pass Details

Date: 11 April 2026
Orbit: 526 x 602 km, 62.0° (Epoch: 11 May)

Event Time Altitude Azimuth Distance (km) Brightness Sun altitude
Rises 19:59:46 0° 227° (SW) 2,709 6.1 -10.0°
Reaches altitude 10° 20:02:09 10° 217° (SW) 1,806 5.1 -10.1°
Maximum altitude 20:05:43 31° 155° (SSE) 967 3.3 -10.3°
Drops below altitude 10° 20:09:16 10° 93° (E) 1,786 4.9 -10.5°
Sets 20:11:37 0° 83° (E) 2,673 5.8 -10.6°
